Overview Statistics Trail Chart Weather Telemetry Raw packets
 

This is the latest recevied weather packets stored in our database for station/object KD0MAC. If no packets are shown the sender has not sent any weather packets the latest 10 day(s).

<< 19 20 21 22 23 24 25 >>
Time Temp. Humidity Pressure Rain* Wind** Luminosity Snow
1788566075 35.56° C 36% 1011.5 hPa 0 mm - 57 W/m² -
1788565775 35.56° C 37% 1011.5 hPa 0 mm - 64 W/m² -
1788565724 35.56° C 37% 1011.5 hPa 0 mm - 64 W/m² -
1788565424 35.56° C 36% 1011.5 hPa 0 mm - 112 W/m² -
1788565175 36.11° C 36% 1011.2 hPa 0 mm - 126 W/m² -
1788565126 36.11° C 36% 1011.2 hPa 0 mm - 126 W/m² -
1788564824 36.11° C 36% 1011.2 hPa 0 mm - 146 W/m² -
1788564577 36.11° C 35% 1011.2 hPa 0 mm - 169 W/m² -
1788564525 36.11° C 35% 1011.2 hPa 0 mm - 169 W/m² -
1788564275 36.67° C 35% 1011.2 hPa 0 mm - 185 W/m² -
1788564226 36.67° C 35% 1011.2 hPa 0 mm - 185 W/m² -
1788563924 36.67° C 35% 1011.2 hPa 0 mm - 188 W/m² -
1788563625 35.56° C 35% 1011.2 hPa 0 mm - 103 W/m² -
1788563324 36.67° C 34% 1011.2 hPa 0 mm - 91 W/m² -
1788563075 36.67° C 34% 1011.2 hPa 0 mm - 180 W/m² -
1788562776 36.67° C 33% 1011.2 hPa 0 mm - 197 W/m² -
1788562475 36.67° C 34% 1011.2 hPa 0 mm - 217 W/m² -
1788562175 36.11° C 36% 1011.2 hPa 0 mm - 108 W/m² -
1788562125 36.11° C 36% 1011.2 hPa 0 mm - 108 W/m² -
1788561875 36.11° C 35% 1011.2 hPa 0 mm - 230 W/m² -
1788561824 36.11° C 35% 1011.2 hPa 0 mm - 230 W/m² -
1788561524 35.56° C 36% 1011.2 hPa 0 mm - 108 W/m² -
1788561224 36.11° C 37% 1011.2 hPa 0 mm - 99 W/m² -
1788560924 36.11° C 36% 1011.2 hPa 0 mm - 100 W/m² -
1788560675 36.67° C 35% 1011.2 hPa 0 mm - 108 W/m² -

* Rain latest hour (hover to see other rain measurements)
** Current wind speed in m/s (hover to see current wind gust speed)